Simultaneous Nadir Overpasses (SNOs) Predictions

Prediction of SNOs between GOES-16 and FY3D Satellite Orbit:

Table of predicted SNOs for the next 14.0 days since TLE Epoch: 7/3/2021
Index Date Time (GOES-16) GOES-16 Lat,Lon FY3D Lat,Lon Distance(km) Time Diff (sec)
1 07/03/2021 18:36:17 0.06, -75.13 0.27, -74.21 105.64 80
2 07/05/2021 06:55:04 -0.07, -75.13 0.86, -79.38 484.99 80
3 07/06/2021 06:36:06 -0.07, -75.13 -0.13, -74.79 38.34 80
4 07/08/2021 18:38:45 0.08, -75.14 -0.00, -75.41 31.30 80
5 07/09/2021 18:22:27 0.07, -75.15 1.05, -70.83 492.49 80
6 07/11/2021 06:41:15 -0.09, -75.15 0.09, -76.00 97.35 80
7 07/12/2021 06:24:56 -0.08, -75.15 -0.90, -71.41 426.57 80
8 07/13/2021 18:43:53 0.09, -75.17 -0.20, -76.63 165.70 80
9 07/14/2021 18:27:35 0.09, -75.18 0.79, -72.03 358.86 80
10 07/16/2021 06:46:22 -0.10, -75.20 0.36, -77.21 229.58 80
